| time (UTC) | temp C | wind direction | speed KPH | gust KPH | rain 1hr cm | rain 24hr cm | rain mn cm | humidity % | barometer mb |
| 20260508214115 | 22 | 267 | 3.2 | 14.5 | 0.00 | 0.00 | 0.00 | 34 | 1009.9 |
| 20260508213114 | 22 | 260 | 4.8 | 11.3 | 0.00 | 0.00 | 0.00 | 32 | 1009.9 |
| 20260508212113 | 22 | 223 | 0.0 | 8.0 | 0.00 | 0.00 | 0.00 | 35 | 1009.9 |
| 20260508211114 | 22 | 88 | 3.2 | 8.0 | 0.00 | 0.00 | 0.00 | 32 | 1009.9 |
| 20260508210117 | 22 | 358 | 0.0 | 14.5 | 0.00 | 0.00 | 0.00 | 35 | 1009.9 |
| 20260508205101 | 21 | 292 | 1.6 | 12.9 | 0.00 | 0.00 | 0.00 | 30 | 1009.9 |
| 20260508204100 | 21 | 189 | 1.6 | 14.5 | 0.00 | 0.00 | 0.00 | 33 | 1009.9 |
| 20260508203102 | 21 | 170 | 4.8 | 14.5 | 0.00 | 0.00 | 0.00 | 31 | 1009.9 |
| 20260508202059 | 21 | 84 | 4.8 | 16.1 | 0.00 | 0.00 | 0.00 | 32 | 1009.9 |
| 20260508201101 | 21 | 199 | 3.2 | 16.1 | 0.00 | 0.00 | 0.00 | 32 | 1009.9 |
| 20260508195058 | 21 | 226 | 8.0 | 14.5 | 0.00 | 0.00 | 0.00 | 28 | 1009.9 |
| 20260508194100 | 21 | 230 | 6.4 | 12.9 | 0.00 | 0.00 | 0.00 | 30 | 1009.9 |
| 20260508193059 | 21 | 213 | 4.8 | 12.9 | 0.00 | 0.00 | 0.00 | 30 | 1009.9 |
| 20260508192059 | 21 | 174 | 1.6 | 12.9 | 0.00 | 0.00 | 0.00 | 32 | 1009.9 |
| 20260508191053 | 20 | 196 | 0.0 | 12.9 | 0.00 | 0.00 | 0.00 | 32 | 1009.9 |
| 20260508190054 | 20 | 219 | 4.8 | 12.9 | 0.00 | 0.00 | 0.00 | 33 | 1009.9 |
| 20260508185052 | 20 | 149 | 4.8 | 12.9 | 0.00 | 0.00 | 0.00 | 34 | 1009.9 |
| 20260508183050 | 20 | 203 | 4.8 | 11.3 | 0.00 | 0.00 | 0.00 | 35 | 1009.9 |
| 20260508182048 | 20 | 199 | 3.2 | 11.3 | 0.00 | 0.00 | 0.00 | 36 | 1009.9 |
| 20260508181050 | 19 | 201 | 8.0 | 11.3 | 0.00 | 0.00 | 0.00 | 35 | 1009.9 |
| 20260508180049 | 20 | 57 | 3.2 | 14.5 | 0.00 | 0.00 | 0.00 | 37 | 1009.9 |
| 20260508175048 | 20 | 157 | 1.6 | 14.5 | 0.00 | 0.00 | 0.00 | 38 | 1009.9 |
| 20260508173046 | 19 | 123 | 3.2 | 17.7 | 0.00 | 0.00 | 0.00 | 40 | 1009.9 |
| 20260508172048 | 18 | 279 | 0.0 | 9.7 | 0.00 | 0.00 | 0.00 | 43 | 1009.9 |
| 20260508171037 | 18 | 2 | 0.0 | 9.7 | 0.00 | 0.00 | 0.00 | 43 | 1009.9 |
| 20260508170035 | 18 | 94 | 3.2 | 9.7 | 0.00 | 0.00 | 0.00 | 43 | 1009.9 |
| 20260508165035 | 18 | 156 | 0.0 | 9.7 | 0.00 | 0.00 | 0.00 | 45 | 1009.9 |
| 20260508164030 | 18 | 164 | 0.0 | 9.7 | 0.00 | 0.00 | 0.00 | 43 | 1009.9 |
| 20260508163025 | 18 | 281 | 1.6 | 8.0 | 0.00 | 0.00 | 0.00 | 43 | 1009.9 |
| 20260508162025 | 17 | 258 | 1.6 | 12.9 | 0.00 | 0.00 | 0.00 | 45 | 1009.9 |
| 20260508161025 | 17 | 213 | 1.6 | 12.9 | 0.00 | 0.00 | 0.00 | 43 | 1009.9 |
| 20260508160023 | 17 | 232 | 1.6 | 9.7 | 0.00 | 0.00 | 0.00 | 49 | 1009.9 |
| 20260508155023 | 16 | 329 | 1.6 | 9.7 | 0.00 | 0.00 | 0.00 | 49 | 1009.9 |
| 20260508154022 | 16 | 135 | 1.6 | 11.3 | 0.00 | 0.00 | 0.00 | 53 | 1009.9 |
| 20260508153021 | 15 | 175 | 0.0 | 9.7 | 0.00 | 0.00 | 0.00 | 67 | 1009.9 |
| 20260508152017 | 14 | 11 | 0.0 | 9.7 | 0.00 | 0.00 | 0.00 | 69 | 1009.9 |
| 20260508151011 | 13 | 230 | 1.6 | 14.5 | 0.00 | 0.00 | 0.00 | 75 | 1009.9 |
| 20260508150012 | 12 | 33 | 1.6 | 14.5 | 0.00 | 0.00 | 0.00 | 82 | 1009.9 |
| 20260508145010 | 11 | 50 | 1.6 | 9.7 | 0.00 | 0.00 | 0.00 | 85 | 1009.9 |
| 20260508144009 | 11 | 77 | 0.0 | 0.0 | 0.00 | 0.00 | 0.00 | 91 | 1009.9 |
| 20260508143006 | 10 | 77 | 0.0 | 0.0 | 0.00 | 0.00 | 0.00 | 95 | 1009.9 |
| 20260508141958 | 9 | 77 | 0.0 | 0.0 | 0.00 | 0.00 | 0.00 | 98 | 1009.9 |
| 20260508140950 | 8 | 77 | 0.0 | 0.0 | 0.00 | 0.00 | 0.00 | 100 | 1009.9 |
| 20260508134936 | 7 | 77 | 0.0 | 0.0 | 0.00 | 0.00 | 0.00 | 100 | 1009.9 |
| 20260508133929 | 6 | 77 | 0.0 | 0.0 | 0.00 | 0.00 | 0.00 | 100 | 1009.9 |
| 20260508132914 | 6 | 77 | 0.0 | 0.0 | 0.00 | 0.00 | 0.00 | 100 | 1009.9 |
| 20260508131909 | 5 | 77 | 0.0 | 0.0 | 0.00 | 0.00 | 0.00 | 100 | 1009.9 |
| 20260508130901 | 5 | 77 | 0.0 | 0.0 | 0.00 | 0.00 | 0.00 | 100 | 1009.9 |
| 20260508125854 | 4 | 77 | 0.0 | 0.0 | 0.00 | 0.00 | 0.00 | 100 | 1009.9 |
| 20260508124838 | 3 | 77 | 0.0 | 0.0 | 0.00 | 0.00 | 0.00 | 100 | 1009.9 |
| 20260508122838 | 2 | 77 | 0.0 | 0.0 | 0.00 | 0.00 | 0.00 | 99 | 1009.9 |
| 20260508121836 | 2 | 77 | 0.0 | 0.0 | 0.00 | 0.00 | 0.00 | 99 | 1009.9 |
| 20260508115821 | 2 | 77 | 0.0 | 0.0 | 0.00 | 0.00 | 0.00 | 98 | 1009.9 |
| 20260508114814 | 2 | 77 | 0.0 | 0.0 | 0.00 | 0.00 | 0.00 | 98 | 1009.9 |
| 20260508113806 | 2 | 77 | 0.0 | 0.0 | 0.00 | 0.00 | 0.00 | 98 | 1009.9 |
| 20260508112759 | 2 | 77 | 0.0 | 0.0 | 0.00 | 0.00 | 0.00 | 98 | 1009.9 |
| 20260508111751 | 2 | 77 | 0.0 | 0.0 | 0.00 | 0.00 | 0.00 | 98 | 1009.9 |
| 20260508110737 | 2 | 77 | 0.0 | 0.0 | 0.00 | 0.00 | 0.00 | 98 | 1009.9 |
| 20260508105736 | 2 | 77 | 0.0 | 0.0 | 0.00 | 0.00 | 0.00 | 98 | 1009.9 |
| 20260508104729 | 2 | 77 | 0.0 | 0.0 | 0.00 | 0.00 | 0.00 | 98 | 1009.9 |
| 20260508103717 | 2 | 77 | 0.0 | 0.0 | 0.00 | 0.00 | 0.00 | 98 | 1009.9 |
| 20260508102714 | 2 | 77 | 0.0 | 0.0 | 0.00 | 0.00 | 0.00 | 98 | 1009.9 |
| 20260508101706 | 2 | 77 | 0.0 | 0.0 | 0.00 | 0.00 | 0.00 | 98 | 1009.9 |
| 20260508100659 | 2 | 77 | 0.0 | 0.0 | 0.00 | 0.00 | 0.00 | 98 | 1009.9 |
| 20260508094645 | 3 | 77 | 0.0 | 0.0 | 0.00 | 0.00 | 0.00 | 98 | 1009.9 |
| 20260508092623 | 3 | 77 | 0.0 | 0.0 | 0.00 | 0.00 | 0.00 | 98 | 1009.9 |
| 20260508091613 | 3 | 77 | 0.0 | 0.0 | 0.00 | 0.00 | 0.00 | 98 | 1009.9 |
| 20260508090606 | 3 | 77 | 0.0 | 0.0 | 0.00 | 0.00 | 0.00 | 98 | 1009.9 |
| 20260508085558 | 3 | 77 | 0.0 | 0.0 | 0.00 | 0.00 | 0.00 | 98 | 1009.9 |
| 20260508084551 | 3 | 77 | 0.0 | 0.0 | 0.00 | 0.00 | 0.00 | 98 | 1009.9 |
| 20260508083553 | 3 | 77 | 0.0 | 0.0 | 0.00 | 0.00 | 0.00 | 98 | 1009.9 |
| 20260508082545 | 3 | 77 | 0.0 | 0.0 | 0.00 | 0.00 | 0.00 | 98 | 1009.9 |
| 20260508081538 | 3 | 77 | 0.0 | 0.0 | 0.00 | 0.00 | 0.00 | 97 | 1009.9 |
| 20260508072457 | 3 | 77 | 0.0 | 0.0 | 0.00 | 0.00 | 0.00 | 97 | 1009.9 |
| 20260508071451 | 3 | 77 | 0.0 | 0.0 | 0.00 | 0.00 | 0.00 | 97 | 1009.9 |
| 20260508070443 | 4 | 77 | 0.0 | 0.0 | 0.00 | 0.00 | 0.00 | 97 | 1009.9 |
| 20260508065436 | 4 | 77 | 0.0 | 0.0 | 0.00 | 0.00 | 0.00 | 97 | 1009.9 |
| 20260508062407 | 4 | 77 | 0.0 | 0.0 | 0.00 | 0.03 | 0.00 | 96 | 1009.9 |
| 20260508061400 | 4 | 77 | 0.0 | 0.0 | 0.00 | 0.03 | 0.00 | 96 | 1009.9 |
| 20260508060355 | 4 | 77 | 0.0 | 0.0 | 0.00 | 0.03 | 0.00 | 96 | 1009.9 |
| 20260508055347 | 4 | 77 | 0.0 | 0.0 | 0.00 | 0.03 | 0.00 | 96 | 1009.9 |
| 20260508054340 | 5 | 77 | 0.0 | 0.0 | 0.00 | 0.03 | 0.00 | 96 | 1009.9 |
| 20260508053323 | 5 | 77 | 0.0 | 0.0 | 0.00 | 0.03 | 0.00 | 96 | 1009.9 |
| 20260508052316 | 5 | 77 | 0.0 | 0.0 | 0.00 | 0.03 | 0.00 | 96 | 1009.9 |
| 20260508051315 | 5 | 77 | 0.0 | 0.0 | 0.00 | 0.03 | 0.00 | 96 | 1009.9 |
| 20260508050315 | 5 | 77 | 0.0 | 0.0 | 0.00 | 0.03 | 0.00 | 96 | 1009.9 |
| 20260508045307 | 5 | 77 | 0.0 | 0.0 | 0.00 | 0.03 | 0.00 | 96 | 1009.9 |
| 20260508043251 | 5 | 77 | 0.0 | 0.0 | 0.00 | 0.03 | 0.00 | 96 | 1009.9 |
| 20260508042240 | 5 | 77 | 0.0 | 0.0 | 0.00 | 0.03 | 0.00 | 95 | 1009.9 |
| 20260508041232 | 5 | 77 | 0.0 | 0.0 | 0.00 | 0.03 | 0.00 | 95 | 1009.9 |
| 20260508040214 | 5 | 77 | 0.0 | 0.0 | 0.00 | 0.03 | 0.00 | 95 | 1009.9 |
| 20260508035207 | 6 | 77 | 0.0 | 0.0 | 0.00 | 0.03 | 0.03 | 95 | 1009.9 |
| 20260508034202 | 6 | 77 | 0.0 | 0.0 | 0.00 | 0.03 | 0.03 | 95 | 1009.9 |
| 20260508033154 | 6 | 77 | 0.0 | 0.0 | 0.00 | 0.03 | 0.03 | 94 | 1009.9 |
| 20260508031143 | 6 | 77 | 0.0 | 0.0 | 0.00 | 0.03 | 0.03 | 94 | 1009.9 |
| 20260508030138 | 7 | 77 | 0.0 | 0.0 | 0.00 | 0.03 | 0.03 | 93 | 1009.9 |
| 20260508025133 | 7 | 77 | 0.0 | 0.0 | 0.00 | 0.05 | 0.03 | 93 | 1009.9 |
| 20260508023105 | 7 | 77 | 0.0 | 0.0 | 0.00 | 0.05 | 0.03 | 92 | 1009.9 |
| 20260508022102 | 8 | 77 | 0.0 | 0.0 | 0.00 | 0.05 | 0.03 | 91 | 1009.9 |
| 20260508021055 | 8 | 77 | 0.0 | 0.0 | 0.00 | 0.05 | 0.03 | 90 | 1009.9 |
| 20260508020048 | 8 | 77 | 0.0 | 0.0 | 0.00 | 0.05 | 0.03 | 90 | 1009.9 |
| 20260508015042 | 8 | 77 | 0.0 | 0.0 | 0.00 | 0.05 | 0.03 | 89 | 1009.9 |
| 20260508013025 | 9 | 77 | 0.0 | 0.0 | 0.00 | 0.08 | 0.03 | 87 | 1009.9 |
| 20260508010015 | 10 | 77 | 0.0 | 0.0 | 0.00 | 0.15 | 0.03 | 82 | 1009.9 |
| 20260508005009 | 11 | 77 | 0.0 | 0.0 | 0.00 | 0.20 | 0.03 | 82 | 1009.9 |
| 20260508003959 | 11 | 77 | 0.0 | 0.0 | 0.00 | 0.23 | 0.03 | 79 | 1009.9 |
| 20260508002952 | 12 | 77 | 0.0 | 0.0 | 0.00 | 0.25 | 0.03 | 77 | 1009.9 |
| 20260508001945 | 13 | 77 | 0.0 | 0.0 | 0.00 | 0.28 | 0.03 | 74 | 1009.9 |
| 20260508000937 | 13 | 77 | 0.0 | 0.0 | 0.00 | 0.33 | 0.03 | 70 | 1009.9 |
| 20260507235935 | 14 | 77 | 0.0 | 0.0 | 0.00 | 0.38 | 0.03 | 65 | 1009.9 |
| 20260507234934 | 15 | 77 | 0.0 | 4.8 | 0.00 | 0.41 | 0.03 | 61 | 1009.9 |
| 20260507233932 | 16 | 61 | 0.0 | 9.7 | 0.00 | 0.41 | 0.03 | 50 | 1009.9 |
| 20260507231927 | 17 | 288 | 0.0 | 4.8 | 0.00 | 0.41 | 0.03 | 52 | 1009.9 |
| 20260507230918 | 17 | 291 | 3.2 | 9.7 | 0.00 | 0.43 | 0.03 | 42 | 1009.9 |
| 20260507223907 | 18 | 75 | 0.0 | 4.8 | 0.00 | 0.43 | 0.03 | 44 | 1009.9 |
| 20260507222846 | 18 | 68 | 1.6 | 11.3 | 0.00 | 0.43 | 0.03 | 44 | 1009.9 |
| 20260507220844 | 18 | 147 | 0.0 | 12.9 | 0.00 | 0.46 | 0.03 | 45 | 1009.9 |
| 20260507215834 | 18 | 225 | 3.2 | 6.4 | 0.00 | 0.46 | 0.03 | 44 | 1009.9 |
| 20260507214833 | 18 | 299 | 1.6 | 8.0 | 0.00 | 0.46 | 0.03 | 45 | 1009.9 |